{"data":{"norad_id":64292,"epoch":"2026-05-25T01:04:02.455104Z","epoch_age_seconds":81912,"freshness":"FRESH","line1":"1 64292U 25123B   26145.04447286 -.00005417  00000+0 -44653-3 0  9992","line2":"2 64292  70.0023   2.0258 0002966 274.0508  86.0312 14.98330864 54277","mean_motion":14.98330864,"eccentricity":0.0002966,"inclination_deg":70.0023,"raan_deg":2.0258,"arg_perigee_deg":274.0508,"mean_anomaly_deg":86.0312,"bstar":-0.00044653,"rev_number":5427,"period_min":96.106943706394,"perigee_km":569.99179267799,"apogee_km":574.11464551596,"semimajor_km":6950.190219097,"source":"CELESTRAK","updated_at":"2026-05-25T13:38:20.364511Z"}}